EWS-G1 (GOES 13)

Last updated on Tue Aug 26 2025 00:02:22 GMT+0000 (Coordinated Universal Time)

1 29155U 06018A 25237.52266981 -.00000135 00000+0 00000+0 0 9993 2 29155 3.7592 80.0465 0058928 267.4033 3.9550 0.98789125 40320

Satellite not in orbit

EWS-G1 (GOES 13)